Location: Acton
(51.4942°N, 0.2232°W)
Time: 13:48:25
(UTC+00:00)

ATLAS CENTAUR R/B - Pass Details

Date: 18 September 2020
Orbit: 479 x 667 km, 64.7° (Epoch: 12 October)

Event Time Altitude Azimuth Distance (km) Brightness Sun altitude
Rises 19:26:23 0° 269° (W) 2,643 6.3 -12.8°
Reaches altitude 10° 19:29:07 10° 289° (WNW) 1,727 5.4 -13.3°
Maximum altitude 19:31:52 18° 335° (NNW) 1,261 3.8 -13.7°
Drops below altitude 10° 19:34:34 10° 21° (NNE) 1,685 3.8 -14.0°
Sets 19:37:11 0° 41° (NE) 2,554 4.5 -14.4°
